Location: Saint-Palais-sur-Mer
(45.6429°N, 1.0859°W)
Time: 20:36:21
(UTC+02:00)

CUBEBUG 2 - Pass Details

Date: 25 April 2024
Orbit: 570 x 669 km, 97.8° (Epoch: 19 May)

Event Time Altitude Azimuth Distance (km) Brightness Sun altitude
Rises 04:21:55 0° 12° (NNE) 2,795 ? -23.2°
Reaches altitude 10° 04:24:03 10° 12° (NNE) 1,899 ? -22.9°
Maximum altitude 04:28:10 85° 287° (WNW) 594 ? -22.5°
Enters shadow 04:28:24 78° 218° (SW) 603 ? -22.5°
